Paris / Charles De Gaulle, France

7:06 AM CEST on June 26, 2017 (GMT +0200)
Charles de Gaulle

Weather History for LFPG - June, 2012

Change the Weather History Date:

Saturday, June 23, 2012

  Actual Average Record
Temperature  
Mean Temperature 62 °F -  
Max Temperature 69 °F 73 °F 91 °F (2005)
Min Temperature 55 °F 56 °F 48 °F (1999)
Degree Days  
Heating Degree Days 3    
Growing Degree Days 12 (Base 50)    
Moisture  
Dew Point 47 °F    
Average Humidity 59    
Maximum Humidity 82    
Minimum Humidity 40    
Precipitation  
Precipitation 0.00 in - - ()
Sea Level Pressure  
Sea Level Pressure 30.22 in    
Wind  
Wind Speed 6 mph ()    
Max Wind Speed 10 mph    
Max Gust Speed 21 mph    
Visibility 6.2 miles    
Events      
Averages and records for this station are not official NWS values.
T = Trace of Precipitation, MM = Missing Value Source: Averaged Metar Reports

Daily Weather History Graph

Daily Weather History Graph

Search for Another Location

Airport or City:

Trip Planner

Search our weather history database for the weather conditions in past years. The results will help you decide how hot, cold, wet, or windy it might be!

Date:

Astronomy

Jun. 23, 2012 Rise Set
Actual Time 5:46 AM CEST 9:58 PM CEST
Civil Twilight 5:03 AM CEST 10:41 PM CEST
Nautical Twilight 4:01 AM CEST 11:42 PM CEST
Astronomical Twilight 2:24 AM CEST 1:19 AM CEST
Moon 9:52 AM CEST (6/23) 11:54 PM CEST (6/23)
Length of Visible Light 17h 38m
Length of Day
16h 12m
Waxing Crescent, 14% of the Moon is Illuminated
Jun 23
Waxing Crescent
Jun 27
First Quarter
Jul 3
Full
Jul 11
Last Quarter
Jul 19
New

Hourly Weather History & Observations

Time (CEST) Temp. Dew Point Humidity Pressure Visibility Wind Dir Wind Speed Gust Speed Precip Events Conditions
12:00 AM 62.6 °F 48.2 °F 59% 30.18 in 6.2 mi WSW 10.4 mph - N/A   Partly Cloudy
12:30 AM 60.8 °F 48.2 °F 63% 30.18 in - WSW 9.2 mph - N/A   Clear
1:00 AM 60.8 °F 48.2 °F 63% 30.18 in - West 8.1 mph - N/A   Clear
1:30 AM 60.8 °F 48.2 °F 63% 30.18 in - West 8.1 mph - N/A   Clear
2:00 AM 59.0 °F 48.2 °F 67% 30.18 in - West 6.9 mph - N/A   Clear
2:30 AM 57.2 °F 48.2 °F 72% 30.18 in - WSW 4.6 mph - N/A   Clear
3:00 AM 57.2 °F 48.2 °F 72% 30.18 in - SW 3.5 mph - N/A   Clear
3:30 AM 57.2 °F 48.2 °F 72% 30.18 in - SW 2.3 mph - N/A   Clear
4:00 AM 55.4 °F 48.2 °F 77% 30.21 in 6.2 mi WSW 3.5 mph - N/A   Partly Cloudy
4:30 AM 57.2 °F 50.0 °F 77% 30.21 in 6.2 mi SSW 5.8 mph - N/A   Mostly Cloudy
5:00 AM 57.2 °F 50.0 °F 77% 30.21 in 6.2 mi SSW 5.8 mph - N/A   Mostly Cloudy
5:30 AM 57.2 °F 50.0 °F 77% 30.21 in 6.2 mi SW 5.8 mph - N/A   Mostly Cloudy
6:00 AM 55.4 °F 50.0 °F 82% 30.21 in 6.2 mi WSW 5.8 mph - N/A   Mostly Cloudy
6:30 AM 55.4 °F 50.0 °F 82% 30.21 in 6.2 mi WSW 5.8 mph - N/A   Mostly Cloudy
7:00 AM 55.4 °F 50.0 °F 82% 30.24 in 6.2 mi WSW 4.6 mph - N/A   Mostly Cloudy
7:30 AM 55.4 °F 50.0 °F 82% 30.24 in 6.2 mi West 5.8 mph - N/A   Mostly Cloudy
8:00 AM 57.2 °F 50.0 °F 77% 30.24 in 6.2 mi West 6.9 mph - N/A   Mostly Cloudy
8:30 AM 57.2 °F 48.2 °F 72% 30.24 in 6.2 mi West 5.8 mph - N/A   Mostly Cloudy
9:00 AM 59.0 °F 50.0 °F 72% 30.27 in - West 8.1 mph - N/A   Clear
9:30 AM 59.0 °F 50.0 °F 72% 30.27 in 6.2 mi West 6.9 mph - N/A   Mostly Cloudy
10:00 AM 59.0 °F 50.0 °F 72% 30.27 in 6.2 mi WNW 5.8 mph - N/A   Mostly Cloudy
10:30 AM 60.8 °F 48.2 °F 63% 30.27 in 6.2 mi NW 6.9 mph - N/A   Mostly Cloudy
11:00 AM 62.6 °F 46.4 °F 55% 30.27 in 6.2 mi WNW 4.6 mph - N/A   Mostly Cloudy
11:30 AM 64.4 °F 46.4 °F 52% 30.27 in 6.2 mi WSW 6.9 mph - N/A   Mostly Cloudy
12:00 PM 64.4 °F 46.4 °F 52% 30.27 in 6.2 mi West 6.9 mph - N/A   Mostly Cloudy
12:30 PM 64.4 °F 48.2 °F 56% 30.27 in 6.2 mi West 8.1 mph - N/A   Mostly Cloudy
1:00 PM 66.2 °F 46.4 °F 49% 30.27 in 6.2 mi WSW 6.9 mph - N/A   Mostly Cloudy
1:30 PM 66.2 °F 48.2 °F 52% 30.24 in 6.2 mi West 5.8 mph - N/A   Mostly Cloudy
2:00 PM 66.2 °F 48.2 °F 52% 30.24 in 6.2 mi West 6.9 mph - N/A   Mostly Cloudy
2:30 PM 68.0 °F 44.6 °F 43% 30.24 in 6.2 mi SW 8.1 mph 19.6 mph N/A   Mostly Cloudy
3:00 PM 68.0 °F 46.4 °F 46% 30.24 in 6.2 mi West 5.8 mph - N/A   Mostly Cloudy
3:30 PM 69.8 °F 46.4 °F 43% 30.24 in 6.2 mi West 5.8 mph - N/A   Mostly Cloudy
4:00 PM 69.8 °F 48.2 °F 46% 30.24 in 6.2 mi WSW 6.9 mph - N/A   Mostly Cloudy
4:30 PM 69.8 °F 46.4 °F 43% 30.24 in 6.2 mi West 8.1 mph - N/A   Mostly Cloudy
5:00 PM 69.8 °F 46.4 °F 43% 30.21 in 6.2 mi WSW 6.9 mph - N/A   Mostly Cloudy
5:30 PM 69.8 °F 44.6 °F 40% 30.21 in 6.2 mi West 10.4 mph - N/A   Mostly Cloudy
6:00 PM 68.0 °F 46.4 °F 46% 30.21 in 6.2 mi West 9.2 mph - N/A   Mostly Cloudy
6:30 PM 69.8 °F 44.6 °F 40% 30.21 in 6.2 mi WSW 9.2 mph - N/A   Scattered Clouds
7:00 PM 68.0 °F 44.6 °F 43% 30.21 in - West 9.2 mph - N/A   Clear
7:30 PM 68.0 °F 44.6 °F 43% 30.21 in - SSW 9.2 mph - N/A   Clear
8:00 PM 68.0 °F 42.8 °F 40% 30.18 in - SW 9.2 mph - N/A   Clear
8:30 PM 68.0 °F 42.8 °F 40% 30.18 in - WSW 9.2 mph - N/A   Clear
9:00 PM 66.2 °F 44.6 °F 46% 30.18 in - SW 8.1 mph - N/A   Clear
9:30 PM 66.2 °F 44.6 °F 46% 30.21 in - SW 6.9 mph - N/A   Clear
10:00 PM 64.4 °F 44.6 °F 49% 30.21 in - WSW 5.8 mph - N/A   Clear
10:30 PM 62.6 °F 44.6 °F 52% 30.18 in - SW 6.9 mph - N/A   Clear
11:00 PM 62.6 °F 44.6 °F 52% 30.18 in - SW 6.9 mph 20.7 mph N/A   Clear
11:30 PM 62.6 °F 44.6 °F 52% 30.18 in - SW 6.9 mph - N/A   Clear